Location: Spring Creek
(38.2870°N, 100.2160°W)
Time: 23:29:41
(UTC+00:00)

Cosmos 1607 - Pass Details

Date: 08 May 2021
Orbit: 909 x 993 km, 65.0° (Epoch: 21 June)

Event Time Altitude Azimuth Distance (km) Brightness Sun altitude
Exits shadow 07:42:38 52° 315° (NW) 1,206 4.5 -32.5°
Drops below altitude 10° 07:48:42 10° 22° (NNE) 2,761 7.2 -32.1°
Sets 07:51:23 0° 27° (NNE) 3,713 8.2 -31.9°
